Theta_e
298 298 298 299 299 299 300 299 300 299 300 300 300 301 300 301 301 297 292 297 292 285 286 290 290 285 285 284 280 283 281 281 277 274 275 274 274 276 275 277 276 274 270 268 269 262 264 283 281 277 280 281 283 283
298 298 298 298 298 298 299 299 299 299 299 300 300 300 299 300 300 299 291 296 296 287 285 291 290 290 290 288 285 282 281 281 280 273 271 274 273 275 276 271 278 272 275 273 271 271 279 283 281 284 284 283 283 284
298 298 298 298 298 298 299 299 298 299 298 298 299 299 299 299 299 296 291 292 292 287 286 286 285 290 293 291 291 281 281 283 280 280 274 272 274 276 270 272 276 277 280 275 276 278 279 282 283 285 285 284 285 287
297 297 297 298 298 298 298 298 297 298 298 298 298 298 298 297 296 294 287 289 289 286 280 282 290 287 291 290 288 287 285 285 283 281 275 272 273 277 273 274 274 276 278 277 276 278 279 281 281 282 283 285 285 286
297 296 297 297 297 297 297 297 296 297 297 297 297 297 297 296 294 292 290 289 288 286 280 281 286 287 289 288 287 287 285 282 279 277 274 274 277 276 276 276 274 278 277 275 272 279 279 278 281 284 283 284 285 284
296 296 296 296 296 296 296 296 297 297 297 298 297 296 296 296 292 285 281 287 290 286 281 275 282 283 286 287 285 284 284 281 280 278 276 278 280 276 271 272 278 278 280 281 279 281 281 282 283 284 283 284 284 284
295 295 295 295 295 295 295 296 296 296 297 296 296 296 296 295 290 283 280 286 292 285 279 275 278 282 284 283 281 282 282 281 280 278 277 277 278 278 273 272 277 279 281 281 282 282 280 281 281 284 286 287 288 288
295 295 295 295 295 295 295 295 295 295 296 296 295 295 294 293 290 285 287 291 287 282 281 274 276 278 283 278 277 280 278 279 278 276 277 277 277 277 274 278 279 280 281 282 282 283 283 284 284 286 286 286 286 286
295 295 295 295 295 295 295 295 295 296 296 295 294 292 286 283 278 282 293 288 284 281 272 272 272 268 281 278 279 278 278 270 278 272 275 276 274 272 278 279 279 281 281 281 283 283 283 284 285 284 285 286 285 285
295 295 295 295 295 295 295 295 295 294 295 294 287 279 273 282 294 289 280 275 275 275 276 273 276 271 277 276 271 272 274 274 269 276 279 273 275 280 280 281 281 282 282 282 280 279 281 281 284 284 285 285 284 284
296 295 295 295 295 295 295 295 294 293 291 282 280 280 283 290 282 275 269 272 273 273 276 275 277 275 280 273 273 276 273 276 270 275 275 274 273 279 283 282 282 282 282 281 281 281 280 281 280 280 280 282 282 284
294 295 296 296 295 295 295 295 294 286 284 285 284 285 282 278 272 271 273 276 276 274 275 275 274 276 280 280 275 275 275 276 273 279 273 270 276 284 284 281 281 281 281 281 281 280 281 282 282 283 282 282 283 283
294 294 294 295 296 296 295 295 294 293 289 284 279 275 274 273 268 270 268 272 269 276 277 282 279 280 282 283 276 272 270 269 278 269 270 274 281 283 282 284 282 283 283 283 281 282 282 281 282 282 282 282 282 282
294 294 294 294 294 295 295 295 294 290 283 280 275 265 267 266 272 275 274 276 278 277 281 281 280 280 281 278 275 267 274 275 267 265 271 277 282 281 282 282 281 282 282 281 282 282 282 281 281 282 281 282 281 280
294 294 293 293 295 295 295 294 292 285 278 277 275 265 270 275 275 275 277 277 279 279 276 275 280 280 278 273 277 275 271 267 270 268 272 274 276 276 279 281 280 280 281 281 282 281 280 280 280 280 281 281 282 281
294 292 290 294 295 295 294 289 285 281 276 276 278 274 272 272 268 274 277 274 279 280 281 276 279 277 276 276 276 270 272 267 270 273 278 282 282 283 282 282 281 282 282 281 281 281 281 280 279 280 278 278 278 279
293 284 293 294 294 294 293 284 279 276 275 276 272 274 272 272 270 270 275 276 280 276 270 275 274 273 275 273 275 277 269 272 276 281 282 282 283 283 278 281 281 280 280 280 276 279 280 281 279 274 276 278 279 278
286 290 292 293 291 288 286 283 274 277 275 275 274 268 272 272 270 272 274 280 279 280 275 273 276 276 274 273 270 275 279 279 280 281 278 282 280 278 282 281 281 281 277 272 272 275 276 279 279 278 279 279 277 277
288 290 291 292 291 287 277 281 282 274 273 274 274 274 275 272 274 276 276 276 277 283 280 280 275 274 275 275 270 278 276 275 274 275 279 281 279 280 279 281 281 277 275 279 280 278 277 277 278 279 278 278 276 276
290 290 291 291 290 284 280 280 284 278 275 275 277 275 275 273 274 273 276 281 283 283 280 276 275 274 274 276 276 275 275 277 276 271 270 269 273 279 279 279 280 281 280 280 277 272 273 277 276 278 278 277 276 273
286 286 289 289 286 286 281 280 279 279 279 277 278 278 274 278 277 278 280 283 281 280 277 276 274 273 274 273 276 277 278 278 275 275 273 277 274 279 280 281 282 281 279 279 271 276 270 277 278 279 277 276 277 273
282 288 286 286 281 280 280 282 279 281 279 278 276 278 271 276 277 279 281 281 280 280 277 275 276 280 279 279 277 279 278 280 279 276 273 274 279 279 279 280 280 280 279 279 275 277 275 273 275 275 278 276 271 271
286 283 281 280 276 273 274 283 278 278 274 274 278 275 271 272 276 283 278 280 276 276 276 274 276 280 280 279 281 281 280 277 274 273 273 277 279 279 279 279 280 280 280 276 280 279 278 273 273 274 272 272 273 272
287 280 276 275 275 266 275 276 277 277 277 274 274 271 274 273 280 279 275 271 271 273 274 277 280 280 280 279 276 275 276 276 274 275 278 278 276 275 279 279 280 279 278 278 276 271 270 268 268 271 268 276 273 270
275 272 272 266 274 271 271 272 271 273 272 274 274 273 275 278 274 269 267 268 269 269 271 274 277 279 275 273 273 273 275 274 273 274 275 276 272 272 273 278 278 277 278 276 274 273 270 265 266 267 269 269 276 270
262 266 264 265 264 267 270 266 268 266 268 268 269 271 274 269 263 263 266 268 269 270 270 270 271 271 271 272 271 271 271 273 275 272 273 275 275 275 274 272 274 271 274 276 275 274 274 274 272 271 269 270 269 268
260 261 270 273 271 271 265 266 271 266 263 265 267 265 267 261 260 265 269 270 269 270 270 270 270 269 269 269 271 272 272 272 272 274 274 273 271 271 270 267 266 268 271 270 270 273 274 274 274 273 271 266 267 269
265 265 257 259 260 267 258 262 261 260 264 269 266 263 261 259 260 266 267 269 270 271 269 269 269 269 268 268 268 269 270 271 273 273 273 271 270 268 267 267 267 268 266 264 263 266 270 272 274 275 271 266 266 267
259 262 262 255 255 262 261 261 261 265 269 268 260 262 264 266 266 266 267 268 268 267 265 264 263 264 266 267 267 267 267 268 268 266 265 265 264 264 263 261 260 260 260 261 264 266 267 267 271 271 270 273 270 266
258 264 257 251 254 260 261 263 260 260 265 266 269 267 266 263 264 266 265 264 263 260 260 261 262 262 259 261 261 263 265 265 266 265 263 263 262 261 257 256 257 257 256 255 258 261 263 260 262 261 262 263 262 264
262 259 257 257 257 259 257 252 250 254 252 252 255 261 259 260 261 262 261 259 259 257 259 258 259 258 259 260 257 257 258 260 262 264 265 265 261 257 255 256 255 253 253 253 255 256 257 259 263 258 260 261 263 262
252 252 253 254 254 253 251 249 247 249 250 254 257 258 260 260 257 259 261 259 259 257 256 250 252 256 256 254 254 256 259 261 261 262 264 263 260 258 259 258 255 254 254 256 255 253 252 255 256 256 257 261 261 262
250 249 248 249 252 253 250 251 252 252 253 253 255 254 255 254 253 256 257 253 254 254 254 253 252 252 251 252 252 253 252 254 257 260 263 263 259 257 254 252 251 251 253 254 254 253 255 257 256 257 258 258 259 260
Wind_Speed
32 33 33 32 32 32 33 33 32 31 29 27 26 23 22 22 21 9 2 3 6 6 5 10 7 10 13 6 14 12 7 2 3 5 4 3 3 3 4 3 7 7 7 4 3 2 9 7 4 7 5 3 6 6
30 31 31 31 32 32 31 32 31 31 31 29 26 25 23 19 20 16 10 5 5 9 7 8 11 2 5 3 23 2 4 4 5 6 2 4 3 2 5 4 1 2 6 7 9 9 5 6 6 7 4 6 6 4
29 29 30 30 30 30 30 31 31 30 31 32 31 30 26 26 25 19 13 8 15 14 12 9 8 9 14 7 5 9 2 5 4 3 5 3 4 3 4 3 3 0 3 3 2 3 5 8 5 6 5 7 8 6
28 28 28 29 28 28 29 30 30 30 28 28 27 27 27 28 29 19 6 4 5 5 8 6 4 7 6 9 9 6 9 7 6 3 5 3 4 2 3 3 4 4 5 4 4 4 5 8 7 9 8 6 8 8
25 26 27 27 28 28 28 28 28 28 30 30 28 23 18 16 19 17 10 8 4 6 9 7 6 10 8 13 15 13 12 7 4 4 4 2 3 4 2 3 3 5 6 6 7 6 6 6 6 6 6 6 10 12
22 22 23 24 25 26 26 26 26 26 26 26 26 29 23 16 8 6 7 7 12 6 8 6 1 8 8 13 14 11 6 5 4 4 2 2 1 4 3 3 6 7 7 9 8 6 9 8 7 5 9 14 13 10
21 21 22 23 23 23 23 23 23 23 23 23 23 23 25 29 15 8 4 5 11 4 7 5 3 4 4 5 4 4 5 3 4 3 2 3 2 4 3 4 5 8 9 6 6 3 5 7 8 6 5 8 8 5
18 19 19 19 20 21 21 21 21 20 20 19 18 15 19 16 10 8 7 13 4 7 6 5 2 3 5 3 3 3 3 3 5 3 2 3 2 1 4 8 5 4 5 6 9 8 9 5 2 6 5 5 6 8
16 16 17 18 18 19 19 19 19 17 16 15 12 12 8 9 6 4 15 7 4 7 5 4 5 3 3 2 2 3 2 4 1 3 2 4 3 5 7 5 6 6 5 4 1 2 3 5 6 6 6 9 10 9
15 15 16 16 17 17 19 20 20 13 11 10 8 7 6 3 10 9 9 7 8 5 5 4 1 2 4 1 2 3 1 2 2 3 3 2 4 8 7 7 6 3 4 2 1 3 2 4 5 6 7 6 7 9
12 13 14 15 16 18 19 21 22 12 10 5 4 3 4 6 4 5 4 5 2 5 3 1 2 4 3 4 3 0 3 2 2 3 3 2 4 2 4 7 6 8 9 8 6 3 1 2 4 5 6 7 7 10
11 12 13 13 14 15 16 18 20 7 2 1 2 2 3 4 4 7 3 2 5 3 2 3 0 3 2 2 4 2 2 1 1 3 3 2 3 4 6 5 6 6 6 5 3 2 3 4 5 5 6 7 7 8
9 10 11 12 12 12 13 15 16 10 3 3 5 5 5 4 9 5 2 2 3 2 3 3 3 3 2 2 3 4 3 3 2 3 3 3 2 5 5 4 5 6 4 3 2 4 4 5 6 6 7 7 7 8
13 13 13 12 10 9 8 11 13 7 5 4 4 5 3 3 1 1 3 4 1 5 7 5 3 2 2 2 2 4 3 2 1 1 5 2 2 3 3 3 3 4 4 3 4 4 4 5 6 7 6 7 7 8
13 14 10 9 11 7 4 6 9 4 3 3 3 0 1 1 1 1 0 3 2 4 4 2 3 3 3 4 2 3 2 3 5 5 3 3 4 3 3 2 2 3 1 3 3 3 5 5 6 7 7 6 7 7
13 8 6 18 10 4 4 6 4 3 3 3 1 2 2 3 4 2 1 1 2 3 2 3 3 3 2 3 4 5 4 6 4 4 3 4 4 3 3 3 2 1 2 3 3 3 5 5 5 7 7 6 5 7
9 1 13 17 7 5 5 3 4 4 1 2 2 1 2 2 4 3 2 3 2 4 2 3 4 4 1 1 3 4 5 5 3 3 2 3 3 5 3 2 3 3 3 2 2 4 4 4 4 3 8 9 9 7
1 4 11 12 6 4 3 3 3 1 3 2 2 4 2 2 2 2 3 3 3 2 3 4 3 3 4 4 3 3 2 1 2 2 3 3 3 2 3 3 3 3 2 3 2 4 4 5 5 5 7 8 7 5
7 7 9 8 6 2 2 1 1 2 4 2 2 2 2 3 3 1 2 2 2 2 4 2 3 4 4 4 4 3 3 3 3 3 3 4 2 3 4 2 3 2 2 3 3 3 3 4 4 3 4 5 5 5
10 11 10 6 2 2 3 2 2 3 3 3 1 2 3 3 1 1 3 4 5 3 3 4 6 4 5 4 4 4 3 4 4 2 1 2 2 2 0 1 1 1 2 3 2 2 2 4 3 4 5 5 5 5
5 4 7 4 1 2 2 2 3 3 2 3 2 3 3 0 2 3 4 4 4 3 3 4 4 3 2 1 2 3 4 4 3 4 4 3 1 2 1 2 2 1 0 3 1 3 2 2 3 3 3 4 3 3
3 5 2 1 2 2 4 3 2 1 3 3 2 3 2 2 3 4 4 3 3 4 4 4 3 5 5 5 3 4 5 6 5 4 4 3 2 2 1 2 1 1 1 2 2 2 2 2 2 2 3 3 2 2
2 3 1 2 2 2 5 1 4 4 4 4 1 2 3 3 4 5 4 3 2 4 6 3 3 2 7 6 7 7 5 7 4 3 3 2 3 3 2 1 2 2 1 1 1 2 2 4 3 2 2 2 1 2
1 1 1 1 2 5 2 3 3 2 3 2 3 5 4 2 3 3 3 4 4 8 7 9 4 6 5 6 5 4 3 3 3 3 3 3 3 1 2 1 2 3 4 2 2 2 3 3 5 3 3 2 3 2
2 3 1 3 2 3 4 4 3 3 4 3 3 3 3 2 3 6 4 4 6 7 8 9 7 3 7 7 6 6 7 4 3 3 3 2 1 2 2 1 5 5 4 4 5 5 5 4 5 4 4 3 3 3
1 4 3 1 3 2 3 3 4 3 3 4 5 5 4 3 4 3 2 4 4 7 8 8 7 8 9 7 6 5 4 4 1 3 3 4 4 1 2 2 2 3 6 5 3 4 5 6 7 8 7 8 5 2
1 3 2 2 2 3 4 3 3 3 4 4 4 5 4 4 3 2 2 4 3 4 6 7 7 7 6 5 5 4 3 4 3 3 6 7 7 6 5 3 3 3 5 5 5 5 6 6 4 5 6 5 4 3
3 1 2 4 3 3 2 2 2 3 2 3 4 4 2 2 1 2 3 4 4 5 6 6 7 6 5 5 4 5 4 6 4 6 5 5 5 5 5 4 4 7 4 3 3 5 5 6 5 8 4 4 5 4
1 2 3 4 4 2 1 2 2 2 1 1 0 1 2 3 2 2 3 4 4 4 4 4 5 4 4 3 4 4 4 5 5 5 5 2 3 3 4 3 3 3 4 5 8 6 7 5 6 6 6 5 4 4
3 1 4 2 2 0 3 3 2 3 2 2 0 3 2 2 2 3 2 2 3 2 1 1 1 4 4 5 5 6 3 3 5 4 2 2 3 3 3 4 4 4 3 3 5 7 7 4 5 4 4 4 3 3
2 3 3 1 2 3 2 3 3 0 3 3 2 3 2 3 1 2 1 0 1 2 3 3 3 2 3 4 2 3 4 3 4 6 5 4 3 3 3 3 3 2 3 3 4 3 4 4 4 5 6 6 7 3
3 3 4 1 4 4 5 4 2 3 5 3 2 2 1 2 1 2 1 2 3 3 2 1 2 4 3 2 2 3 6 5 5 5 8 3 2 3 3 3 2 2 3 3 3 2 2 4 4 4 4 1 3 5
2 3 3 2 5 6 4 4 5 6 4 3 2 2 1 5 4 4 2 1 4 4 3 4 4 4 5 5 5 5 4 4 7 9 7 5 4 4 2 2 2 3 4 3 3 3 3 2 2 3 3 4 6 7
Wind_Direction
26 27 28 33 36 39 44 45 47 56 61 63 75 88 98 113 136 134 105 40 110 78 70 121 127 130 124 165 135 163 107 293 81 97 125 160 125 157 112 111 163 158 145 167 105 108 269 180 110 182 189 222 215 229
26 28 30 29 33 35 38 43 43 49 55 63 71 91 95 90 103 100 94 67 80 72 99 103 83 350 133 107 122 66 133 121 146 98 67 107 100 129 137 174 27 168 169 171 175 206 228 191 185 212 208 234 254 221
27 29 30 31 32 34 35 36 37 41 48 55 58 62 73 79 78 88 95 94 100 97 73 65 56 16 76 103 90 112 39 128 80 148 150 144 112 141 141 210 124 250 142 167 124 179 218 242 252 238 226 227 259 238
24 27 31 32 34 35 36 36 36 34 35 40 44 53 59 64 69 73 77 334 82 116 110 56 350 38 335 70 58 75 110 76 104 65 80 111 117 194 174 127 149 183 133 185 279 286 283 268 254 269 276 267 276 276
24 26 27 29 31 32 34 34 34 38 40 40 38 37 44 55 66 73 64 41 7 93 90 97 52 4 26 75 75 86 94 92 69 62 69 101 103 104 43 70 226 186 184 183 221 217 204 233 269 282 280 266 274 279
25 26 27 27 28 29 29 27 28 29 29 30 36 42 41 33 40 58 53 0 13 27 94 72 333 19 31 70 75 66 64 66 74 107 113 87 91 99 116 208 241 212 202 192 226 219 211 238 257 253 263 278 279 270
19 24 27 27 27 26 26 23 22 21 21 22 25 33 44 52 59 56 101 272 336 36 80 76 67 355 5 51 33 43 34 60 86 98 78 121 134 114 147 224 215 212 217 223 221 230 281 222 242 240 268 280 290 281
18 17 19 23 21 19 19 16 15 13 11 11 13 27 38 44 54 31 3 9 27 84 68 93 96 52 9 47 68 4 67 35 16 107 64 120 79 108 242 230 222 230 236 243 241 212 230 256 249 273 271 276 273 270
13 15 14 13 12 13 13 8 3 1 2 3 11 26 30 31 34 304 322 6 30 95 103 84 118 184 360 59 91 46 56 54 302 97 202 114 164 220 225 225 222 223 194 228 221 306 300 241 258 288 273 273 261 264
3 6 8 8 7 6 4 3 4 1 355 4 26 37 22 320 306 346 5 26 19 351 36 77 348 77 75 12 19 79 20 131 126 227 115 122 253 266 258 223 215 208 232 288 10 324 322 285 287 295 301 296 294 291
356 357 357 360 0 1 1 2 0 356 26 39 40 48 244 316 39 29 35 63 319 49 35 138 78 116 349 104 136 104 163 137 114 208 130 231 262 258 96 65 63 75 81 74 98 110 90 259 272 274 280 274 281 290
355 354 351 351 353 356 359 1 7 25 37 99 145 13 4 34 30 75 24 348 43 103 27 89 126 134 92 100 94 351 108 83 146 133 110 261 276 33 105 100 83 83 87 83 84 44 303 285 291 292 295 297 294 293
357 354 349 350 347 347 354 357 2 6 20 17 35 34 43 320 38 75 70 9 57 146 149 138 103 76 59 36 48 75 84 208 84 63 221 220 216 93 80 101 102 85 80 48 11 0 324 312 310 302 301 294 290 287
346 345 338 337 340 338 345 353 1 6 45 49 34 7 94 344 1 113 142 128 168 102 123 125 103 119 110 132 144 113 214 97 90 190 228 208 116 137 127 137 107 41 22 356 312 318 319 313 307 301 286 284 286 286
337 341 353 338 325 337 347 359 12 45 64 67 61 58 239 275 339 329 307 92 63 123 121 79 105 137 152 119 184 129 112 232 204 222 214 201 186 164 164 126 84 61 2 309 311 304 287 287 291 290 288 280 288 290
332 348 360 351 343 2 58 20 28 58 40 63 128 169 305 35 318 2 26 118 190 125 104 69 133 137 155 154 170 199 179 214 231 202 188 157 171 198 180 165 231 199 258 272 286 282 291 296 291 294 308 305 302 304
338 352 349 352 353 91 47 59 32 32 357 13 249 242 167 181 197 220 179 209 148 84 148 115 157 191 102 213 208 177 203 205 173 142 130 157 217 238 184 184 246 257 264 280 299 294 301 295 306 345 335 330 318 299
312 333 341 352 8 359 354 56 79 351 283 248 268 256 209 197 171 264 226 165 115 120 104 188 131 185 207 209 237 210 178 123 79 114 140 176 167 154 179 231 279 262 263 290 301 304 316 320 316 313 324 326 319 307
299 311 311 327 356 325 5 254 181 242 246 239 241 226 212 223 237 224 129 116 138 127 126 169 173 205 217 214 183 188 192 172 167 182 181 164 167 183 228 234 267 316 306 298 286 291 278 301 310 304 327 334 326 309
309 306 293 283 96 256 239 202 196 243 258 247 261 235 215 207 233 114 136 159 165 160 194 193 213 211 186 212 186 170 160 154 125 99 296 282 259 188 29 295 286 304 297 314 289 343 351 344 341 336 336 330 329 322
341 324 348 135 180 271 264 254 195 229 245 246 230 191 247 100 195 187 181 163 194 215 207 222 222 229 208 205 140 122 130 131 160 155 172 168 295 79 282 263 230 203 284 305 289 330 341 323 314 310 314 313 318 301
269 2 299 222 219 267 269 229 247 189 198 242 274 194 213 202 202 196 149 181 217 227 204 200 187 160 177 180 183 139 136 119 112 96 80 122 143 141 10 16 5 316 283 272 234 292 285 267 285 305 306 297 303 322
315 47 341 331 351 299 269 240 250 204 225 238 241 232 257 221 214 139 186 206 89 0 316 275 238 197 166 129 124 114 129 130 122 126 138 142 110 102 74 2 322 307 259 359 28 358 351 314 311 311 308 325 308 323
59 256 255 245 230 264 308 253 254 247 271 232 217 247 254 262 175 206 145 53 347 335 338 324 179 126 115 106 101 93 85 99 113 97 75 96 95 72 120 87 56 40 39 43 23 360 346 341 333 339 341 320 332 301
268 322 24 302 338 343 301 325 313 8 341 283 238 293 26 322 8 37 46 4 349 352 353 5 17 74 105 99 85 70 48 53 84 105 55 68 70 15 359 154 87 43 27 27 18 3 344 336 347 345 340 320 301 303
101 299 83 316 300 306 338 313 356 314 309 322 0 326 336 52 59 57 57 359 360 359 2 13 28 54 54 49 66 50 21 351 27 88 55 43 48 26 280 276 148 62 5 2 345 334 339 344 347 347 337 336 317 258
89 298 335 346 304 310 335 349 352 36 360 352 352 331 2 54 69 69 76 10 33 16 19 15 28 44 47 38 29 22 17 14 12 73 99 78 60 45 46 54 41 349 329 350 341 329 323 318 306 317 319 316 314 301
176 89 129 289 355 12 185 357 45 9 342 337 354 13 52 45 48 29 16 358 16 50 44 29 29 27 31 27 16 0 357 352 38 90 96 85 77 66 44 28 10 343 335 324 300 313 326 322 306 311 293 285 296 295
51 306 82 355 353 1 64 118 247 265 283 355 266 356 86 68 349 39 32 14 21 49 49 33 11 355 16 6 22 18 11 16 36 47 46 27 359 342 14 4 347 341 339 330 320 311 306 293 298 301 272 270 265 280
287 75 84 57 93 245 253 162 239 285 316 306 49 100 84 58 10 5 23 18 45 36 324 19 332 28 20 15 357 358 14 33 61 58 348 299 257 281 329 328 327 324 323 324 319 319 319 345 324 354 352 330 329 309
344 58 60 59 238 251 267 299 316 308 27 9 338 92 130 145 314 330 82 347 17 35 40 13 357 15 37 8 10 349 330 330 349 323 287 275 255 248 262 272 271 288 302 298 301 298 297 302 299 303 307 298 294 248
26 109 123 332 290 293 11 47 339 32 328 42 359 70 58 71 168 275 266 72 33 26 327 76 22 313 298 263 236 235 245 279 297 300 311 293 273 269 279 283 284 277 284 289 291 285 276 279 294 302 301 348 71 89
47 50 45 42 352 349 325 47 22 347 14 24 342 339 157 154 204 240 299 108 169 185 214 231 241 259 265 269 260 285 283 272 299 307 314 315 291 288 289 304 314 317 326 320 317 318 318 342 20 36 58 79 85 87